Temperature
1 1 1 1 1 1 1 1 1 1 1 1 1 0 0 0 0 0 -0 -0 -0 -0 -0 -0 -0 -0 -0 -0 -0 -0 -1 -1 -1 -1 -1 -1 -1 -1 -1 -0 -0 -0 -0
0 0 0 0 0 0 0 0 0 0 0 0 -0 -0 -0 -0 -0 -0 -1 -1 -1 -1 -1 -1 -1 -1 -1 -1 -1 -1 -1 -1 -2 -2 -2 -2 -1 -1 -1 -1 -1 -1 -1
-0 -0 -0 -0 -0 -0 -0 -0 -0 -0 -0 -1 -1 -1 -1 -1 -1 -1 -1 -1 -1 -1 -1 -2 -2 -2 -1 -1 -1 -2 -2 -2 -2 -2 -2 -2 -2 -2 -2 -2 -2 -2 -2
-1 -1 -1 -1 -1 -1 -1 -1 -1 -1 -1 -1 -1 -1 -1 -1 -1 -1 -2 -2 -2 -2 -2 -2 -2 -2 -2 -2 -2 -2 -2 -3 -3 -3 -3 -3 -3 -3 -3 -3 -2 -2 -2
-1 -1 -1 -1 -1 -1 -1 -1 -1 -2 -2 -2 -2 -2 -2 -2 -2 -2 -2 -2 -3 -3 -3 -3 -3 -3 -3 -3 -3 -3 -3 -3 -4 -4 -4 -4 -4 -4 -4 -4 -3 -3 -3
-2 -2 -2 -2 -2 -2 -2 -2 -2 -2 -2 -2 -3 -3 -3 -3 -3 -3 -3 -3 -3 -3 -3 -3 -3 -3 -3 -4 -4 -4 -4 -4 -4 -4 -4 -4 -4 -4 -4 -4 -4 -4 -4
-2 -2 -2 -2 -2 -2 -2 -2 -3 -3 -3 -3 -3 -3 -3 -3 -4 -4 -4 -4 -4 -4 -4 -4 -4 -4 -4 -4 -4 -4 -4 -4 -5 -5 -5 -5 -5 -5 -5 -5 -5 -5 -5
-3 -3 -3 -3 -3 -3 -3 -3 -3 -3 -3 -4 -4 -4 -4 -4 -4 -4 -5 -5 -4 -5 -5 -4 -4 -4 -4 -5 -5 -5 -5 -5 -5 -5 -5 -5 -5 -5 -5 -6 -6 -6 -5
-4 -4 -4 -4 -4 -4 -4 -4 -4 -4 -4 -4 -5 -5 -5 -5 -5 -5 -5 -5 -5 -5 -5 -5 -5 -5 -5 -5 -6 -6 -5 -5 -6 -6 -6 -6 -6 -6 -6 -6 -6 -6 -6
-5 -4 -4 -4 -5 -5 -5 -5 -5 -5 -5 -5 -5 -5 -5 -5 -6 -6 -6 -6 -6 -6 -6 -6 -6 -6 -6 -6 -6 -6 -6 -6 -6 -6 -6 -6 -6 -6 -6 -6 -7 -7 -7
-5 -5 -5 -5 -5 -5 -5 -6 -6 -6 -6 -6 -6 -6 -6 -6 -6 -6 -6 -6 -6 -6 -6 -6 -7 -7 -7 -7 -7 -7 -7 -7 -7 -7 -7 -7 -6 -7 -7 -7 -7 -7 -7
-6 -6 -6 -6 -6 -6 -6 -6 -6 -7 -7 -7 -7 -7 -7 -7 -7 -7 -7 -7 -7 -7 -7 -7 -7 -7 -7 -7 -7 -7 -7 -7 -7 -7 -7 -7 -7 -7 -7 -7 -8 -8 -8
-7 -7 -7 -7 -7 -7 -7 -7 -7 -7 -7 -8 -8 -8 -8 -8 -8 -8 -8 -8 -8 -8 -8 -8 -8 -8 -8 -8 -8 -8 -8 -8 -8 -8 -8 -8 -8 -8 -8 -8 -8 -8 -8
-8 -7 -8 -8 -8 -8 -8 -8 -8 -8 -8 -8 -8 -8 -8 -8 -8 -8 -8 -8 -8 -8 -8 -8 -8 -8 -8 -8 -8 -8 -8 -9 -9 -9 -9 -9 -9 -9 -9 -9 -9 -9 -9
-8 -8 -8 -8 -8 -8 -8 -9 -9 -9 -9 -9 -9 -9 -9 -9 -9 -9 -9 -9 -9 -8 -8 -9 -9 -9 -9 -9 -9 -9 -9 -9 -9 -9 -9 -9 -9 -9 -9 -9 -9 -9 -9
-9 -9 -9 -9 -9 -9 -9 -9 -10 -9 -9 -10 -10 -10 -10 -10 -10 -9 -9 -9 -9 -9 -9 -9 -9 -9 -9 -9 -9 -10 -10 -10 -10 -10 -10 -10 -10 -10 -10 -10 -10 -10 -10
-9 -10 -10 -10 -10 -10 -10 -10 -10 -10 -10 -10 -10 -10 -10 -10 -10 -10 -10 -10 -10 -10 -10 -10 -10 -10 -10 -10 -10 -10 -10 -10 -10 -10 -10 -11 -11 -10 -10 -10 -10 -10 -10
-10 -10 -10 -10 -10 -10 -10 -11 -11 -11 -11 -11 -10 -11 -11 -11 -11 -11 -11 -11 -11 -11 -10 -10 -10 -11 -11 -11 -11 -11 -11 -11 -11 -11 -11 -11 -11 -11 -11 -11 -11 -11 -11
-11 -11 -11 -11 -11 -11 -11 -11 -11 -11 -11 -11 -11 -11 -11 -11 -11 -11 -11 -11 -11 -11 -11 -11 -11 -11 -11 -11 -11 -11 -11 -11 -11 -11 -11 -11 -11 -11 -11 -11 -11 -11 -12
-11 -11 -12 -11 -11 -12 -12 -12 -12 -12 -12 -12 -12 -12 -11 -12 -12 -12 -12 -12 -12 -12 -12 -12 -12 -12 -12 -12 -12 -12 -12 -12 -12 -12 -12 -12 -12 -12 -12 -12 -12 -12 -12
-12 -12 -12 -12 -12 -12 -12 -12 -12 -12 -12 -12 -12 -12 -12 -12 -12 -12 -12 -12 -12 -12 -12 -12 -12 -12 -12 -12 -12 -12 -12 -12 -12 -12 -12 -12 -12 -12 -12 -12 -12 -12 -12
-12 -12 -12 -12 -13 -13 -13 -13 -13 -13 -13 -13 -13 -12 -12 -12 -12 -12 -12 -12 -12 -12 -12 -12 -12 -13 -13 -13 -13 -13 -12 -12 -12 -13 -13 -13 -13 -13 -13 -13 -13 -13 -13
-13 -13 -13 -13 -13 -13 -13 -13 -13 -13 -13 -13 -13 -13 -13 -13 -13 -13 -13 -13 -13 -13 -13 -13 -13 -13 -13 -13 -13 -13 -13 -13 -13 -13 -13 -13 -13 -13 -13 -13 -13 -13 -13
-13 -13 -13 -13 -13 -13 -13 -14 -14 -14 -14 -14 -13 -13 -13 -13 -13 -13 -13 -13 -13 -13 -13 -13 -13 -13 -13 -13 -13 -13 -13 -13 -13 -13 -13 -13 -13 -13 -13 -13 -13 -13 -13
-14 -14 -14 -14 -14 -14 -14 -14 -14 -14 -14 -14 -14 -14 -14 -13 -13 -13 -13 -13 -13 -13 -13 -13 -13 -13 -13 -13 -13 -13 -13 -13 -13 -13 -13 -14 -14 -14 -14 -14 -14 -14 -14
-14 -14 -14 -14 -14 -14 -14 -14 -14 -14 -14 -14 -14 -14 -14 -14 -14 -14 -14 -14 -14 -14 -14 -14 -13 -13 -13 -13 -13 -13 -13 -13 -13 -14 -14 -14 -14 -14 -14 -14 -14 -14 -14
Wind_Speed
5 5 5 5 5 5 5 5 4 4 4 5 5 5 5 4 5 5 5 5 5 4 3 4 4 3 2 2 2 2 2 2 3 3 3 2 3 3 5 6 6 6 6
5 4 5 5 5 5 4 4 4 4 4 4 5 5 4 4 5 6 6 5 5 5 5 4 4 3 3 3 3 3 2 2 3 4 3 3 3 3 4 4 5 6 6
4 5 5 5 5 5 4 4 4 4 4 4 4 5 4 4 4 5 5 5 5 5 5 5 5 4 4 3 3 3 3 2 2 3 3 3 3 3 3 4 5 5 6
4 4 5 5 5 5 4 4 4 3 4 5 5 5 5 5 4 4 4 4 4 4 4 5 5 6 5 5 4 4 3 3 2 2 2 2 3 2 2 3 3 3 4
4 5 4 4 4 4 4 4 3 3 3 4 4 4 4 4 4 5 4 4 4 3 3 4 5 5 6 6 4 4 4 3 3 3 2 2 2 2 2 3 4 4 4
4 4 4 4 4 4 4 4 3 3 3 3 3 4 4 3 5 6 5 4 3 3 3 3 3 4 5 6 6 6 6 5 5 4 3 4 4 3 3 3 3 3 4
3 3 4 4 4 4 4 4 4 3 3 3 3 3 3 4 6 6 6 4 4 3 3 3 3 3 3 3 4 5 5 7 6 5 5 5 4 4 3 3 4 4 5
2 3 3 4 4 3 4 3 3 3 3 3 3 3 3 3 4 5 5 3 3 3 3 3 3 3 3 4 3 3 3 4 5 4 4 5 4 4 5 4 4 3 3
1 1 2 3 3 3 3 3 3 3 2 2 2 3 3 3 4 4 3 3 3 3 2 3 3 3 6 6 3 3 2 3 4 5 5 5 6 6 4 2 2 2 3
1 1 1 2 3 3 3 3 2 3 2 2 1 2 3 3 4 4 3 2 3 2 2 2 4 5 6 6 3 3 3 3 2 2 3 3 4 4 4 3 3 3 3
2 2 1 1 2 3 3 2 3 2 2 2 2 1 2 3 4 4 4 2 3 3 3 2 3 6 6 5 4 3 4 3 2 1 1 1 1 1 2 3 3 3 4
2 2 2 1 1 2 3 2 2 3 3 2 2 1 1 1 2 3 4 3 3 3 3 3 3 6 6 5 3 3 4 2 1 1 1 2 2 2 2 4 5 5 5
3 2 2 2 1 1 2 2 2 3 2 2 2 2 1 1 2 3 3 4 4 2 2 4 5 5 5 3 4 4 2 1 1 1 2 2 2 2 2 3 3 4 5
2 2 1 1 1 1 1 2 2 2 2 2 2 2 2 1 1 1 1 2 3 2 1 3 5 4 3 2 2 2 1 1 2 2 2 2 2 2 2 2 2 2 3
2 1 1 1 1 1 1 1 1 2 3 3 3 3 2 2 3 3 2 1 1 2 2 1 1 1 1 1 0 0 1 1 1 1 1 2 2 2 3 2 2 2 2
1 1 1 0 0 1 1 1 2 1 1 1 2 2 2 3 4 4 4 4 4 3 2 2 2 2 2 2 2 2 1 2 2 2 2 2 3 3 3 2 2 2 3
1 1 1 0 0 0 0 1 1 2 2 2 1 2 2 2 3 3 3 3 3 2 1 2 2 2 2 2 2 2 2 2 2 2 2 2 3 3 3 3 3 3 4
1 1 1 0 0 0 0 0 0 0 1 1 2 3 2 3 2 2 2 1 0 0 1 1 2 2 2 2 3 3 2 2 2 2 2 3 3 3 3 3 3 4 4
1 1 1 0 0 0 0 0 0 0 0 1 2 2 3 3 3 2 1 0 1 1 1 2 2 2 3 3 3 3 3 3 3 3 3 3 3 3 4 4 4 6 5
1 2 2 1 0 0 0 0 0 0 1 1 1 2 2 2 1 1 1 1 1 2 2 2 3 3 3 3 3 3 3 3 3 3 3 3 3 4 4 5 4 4 4
1 2 2 1 1 0 0 1 1 1 1 2 2 3 4 1 1 2 2 2 2 2 3 3 3 3 3 3 3 3 4 4 4 4 4 4 4 4 4 4 4 5 5
1 1 1 1 1 1 1 1 1 1 2 2 2 3 5 2 1 2 2 3 3 3 3 3 3 3 4 4 4 4 4 5 4 4 4 4 4 4 4 4 4 4 4
1 1 1 1 1 2 2 1 1 2 2 2 3 2 2 2 2 2 3 3 3 3 4 4 4 4 5 6 7 6 5 6 6 5 4 4 4 4 4 5 5 5 5
1 1 1 2 1 1 2 2 2 2 2 3 3 3 2 2 3 3 3 3 3 4 5 5 5 6 7 7 7 7 8 9 9 9 8 6 5 5 5 5 6 6 6
1 1 2 2 2 2 2 2 2 2 3 3 3 3 3 3 3 3 3 3 4 4 5 6 6 7 8 8 9 9 10 10 10 9 9 7 6 6 6 6 6 6 6
1 2 2 2 2 2 2 3 3 3 3 3 3 3 3 3 3 3 4 4 4 4 5 6 7 8 9 9 10 11 11 11 11 11 9 7 6 6 6 6 6 6 7
Wind_Direction
179 180 180 182 182 178 180 186 188 186 183 184 185 182 179 177 172 170 175 179 183 189 194 191 207 208 187 189 183 182 191 191 232 276 282 298 297 299 312 318 323 322 321
179 175 176 175 175 177 180 181 183 182 184 184 178 175 175 172 167 171 178 183 186 192 199 195 211 202 189 193 192 196 203 203 212 250 275 291 290 287 292 301 313 315 315
171 170 171 175 177 180 180 176 175 175 173 175 174 178 180 176 172 176 180 188 192 197 199 200 211 193 195 203 203 205 210 215 209 224 261 284 290 290 298 301 304 302 305
164 168 176 180 182 180 171 166 167 171 170 176 184 184 184 177 175 174 174 180 186 198 204 208 214 202 201 203 206 204 200 203 203 213 248 273 282 284 281 290 298 295 296
166 171 177 171 164 161 161 161 164 172 175 175 180 179 177 174 178 174 179 181 185 195 210 218 216 208 208 206 208 200 197 203 208 218 240 263 270 281 278 280 279 297 293
163 169 159 155 154 159 163 161 162 167 169 171 173 177 183 191 195 192 178 175 180 188 206 214 210 207 216 226 230 223 214 206 207 214 233 243 256 261 270 275 276 292 295
152 152 156 159 160 163 164 162 168 172 169 175 175 182 193 201 202 201 197 176 176 192 204 204 212 213 218 210 234 243 244 242 237 226 227 235 241 238 234 257 260 260 271
138 151 160 162 159 155 153 158 163 161 169 174 181 186 189 208 209 210 205 172 171 195 205 202 203 210 215 209 211 224 241 249 249 243 228 237 239 233 227 237 250 266 277
80 121 148 152 150 148 149 153 152 150 153 161 176 177 184 210 217 217 205 167 177 197 207 204 203 209 220 218 202 206 236 257 264 260 261 262 265 266 257 237 245 262 276
15 31 93 134 148 157 161 157 150 150 152 151 163 174 191 212 228 223 207 173 180 192 206 215 224 222 224 227 207 197 220 245 246 260 275 285 279 269 263 230 221 246 270
12 31 60 101 141 152 149 148 146 141 133 137 154 180 198 218 228 231 224 194 188 194 207 217 226 229 236 238 235 215 232 239 207 206 255 283 293 270 262 252 239 236 249
30 37 46 76 110 123 128 132 141 141 140 146 154 168 197 224 233 243 237 231 214 197 208 214 223 231 239 243 246 237 245 244 178 199 237 264 270 267 266 262 262 258 252
37 35 36 54 80 111 135 141 142 145 153 165 171 189 214 232 240 253 249 249 239 229 219 225 227 235 243 246 247 245 241 196 185 224 243 258 265 265 268 272 278 281 282
42 28 36 71 84 98 120 141 157 170 175 182 189 200 223 242 247 244 231 251 254 242 223 229 234 240 250 254 256 254 223 206 215 231 250 266 281 277 272 268 272 289 288
33 23 30 50 96 96 85 154 189 207 204 198 201 201 205 229 248 250 243 241 219 208 190 209 211 211 216 220 221 239 237 237 250 252 254 271 276 275 276 278 265 274 272
22 13 21 48 70 81 80 36 17 355 284 269 247 243 252 260 268 265 261 259 256 230 201 180 196 204 211 213 219 234 242 244 254 256 248 254 263 263 270 275 268 262 272
2 338 346 3 85 107 114 120 14 357 1 353 308 275 270 276 280 280 276 274 259 210 172 184 200 208 217 219 223 230 243 246 248 247 243 248 256 260 259 267 272 271 273
351 340 346 327 207 178 183 177 157 335 339 339 331 325 310 295 289 292 293 333 321 128 195 212 220 219 223 226 229 234 241 243 244 252 249 247 249 249 253 260 263 264 272
338 328 318 291 238 159 130 103 81 10 303 311 327 328 331 324 321 317 324 259 224 237 239 237 236 233 232 231 233 234 235 240 243 249 251 247 247 245 249 254 259 270 275
328 326 332 345 47 62 73 121 262 271 278 279 287 293 305 322 327 317 319 276 248 245 247 246 245 242 238 234 235 236 240 242 244 247 251 244 243 241 243 248 254 262 266
319 319 331 349 11 335 297 256 247 248 260 272 277 280 284 277 266 273 276 268 255 251 254 253 252 248 242 237 235 236 241 244 244 245 251 251 243 244 243 244 250 257 264
304 300 294 283 286 282 278 270 260 261 265 273 285 290 291 302 276 274 274 272 267 260 255 251 251 248 239 233 232 236 240 243 243 242 247 253 250 247 246 247 251 255 260
311 300 300 292 282 281 296 289 272 266 268 273 281 287 289 283 278 273 272 276 274 272 266 257 257 260 257 250 243 235 235 240 240 237 239 248 252 251 246 246 250 255 258
313 298 297 298 292 277 275 275 272 271 268 269 273 278 277 274 275 279 280 277 275 275 272 265 262 263 265 265 259 252 247 248 246 240 235 237 246 254 251 247 250 251 257
322 302 293 288 285 279 273 273 272 270 270 271 272 273 272 274 276 279 278 274 270 271 274 271 266 266 268 269 267 263 261 261 256 245 234 230 238 245 251 252 253 256 259
307 293 285 281 275 271 267 267 269 269 268 272 273 270 269 269 272 273 274 274 273 274 276 274 271 270 273 272 271 271 270 269 265 262 247 235 236 243 248 254 255 257 260
Height
1458 1461 1463 1465 1468 1470 1473 1475 1476 1478 1480 1481 1483 1484 1486 1487 1488 1490 1492 1494 1496 1498 1499 1501 1503 1504 1505 1506 1507 1508 1509 1510 1509 1509 1510 1509 1509 1509 1509 1508 1508 1508 1508
1455 1457 1459 1462 1464 1466 1468 1471 1473 1474 1476 1477 1479 1480 1481 1482 1484 1485 1487 1490 1492 1493 1495 1497 1498 1499 1500 1502 1503 1503 1504 1505 1506 1505 1505 1505 1505 1505 1504 1504 1504 1503 1503
1451 1454 1456 1458 1460 1462 1465 1467 1469 1470 1472 1473 1475 1476 1477 1478 1480 1481 1484 1486 1487 1489 1491 1492 1493 1495 1496 1497 1498 1499 1500 1501 1501 1501 1500 1500 1500 1500 1500 1499 1499 1499 1499
1448 1450 1452 1454 1457 1459 1461 1463 1465 1467 1468 1470 1471 1472 1474 1475 1476 1477 1479 1481 1483 1484 1486 1488 1489 1490 1491 1493 1494 1495 1496 1496 1497 1496 1496 1496 1496 1496 1495 1494 1494 1494 1494
1445 1447 1449 1451 1453 1456 1457 1460 1462 1463 1465 1466 1467 1468 1469 1471 1472 1473 1475 1476 1478 1479 1481 1483 1484 1485 1487 1488 1489 1490 1491 1492 1492 1492 1492 1492 1491 1491 1491 1490 1490 1489 1489
1442 1444 1446 1448 1450 1452 1454 1456 1458 1460 1461 1462 1463 1464 1465 1467 1468 1469 1471 1472 1474 1475 1476 1478 1480 1481 1482 1484 1485 1486 1487 1487 1487 1487 1487 1487 1487 1487 1487 1486 1486 1484 1483
1440 1441 1443 1445 1446 1448 1450 1452 1454 1456 1457 1458 1459 1461 1462 1463 1465 1466 1467 1468 1470 1471 1473 1474 1475 1476 1478 1479 1480 1481 1482 1482 1483 1483 1483 1482 1482 1482 1482 1482 1481 1481 1480
1437 1439 1440 1442 1443 1445 1447 1449 1450 1452 1453 1454 1456 1457 1458 1460 1461 1462 1464 1464 1466 1467 1469 1469 1471 1472 1473 1474 1475 1476 1476 1477 1477 1478 1478 1478 1478 1478 1478 1478 1477 1476 1475
1436 1436 1437 1439 1440 1442 1443 1445 1446 1448 1449 1451 1452 1453 1454 1456 1457 1459 1460 1461 1462 1463 1465 1466 1467 1468 1469 1470 1471 1471 1471 1472 1473 1473 1473 1473 1473 1473 1473 1473 1472 1471 1469
1434 1434 1435 1436 1437 1439 1440 1442 1443 1444 1446 1447 1449 1450 1451 1452 1454 1455 1457 1457 1458 1459 1461 1462 1463 1464 1465 1466 1466 1466 1466 1467 1468 1468 1468 1468 1468 1468 1468 1468 1467 1467 1465
1432 1433 1433 1434 1435 1436 1438 1439 1440 1441 1443 1444 1445 1447 1448 1449 1450 1452 1453 1454 1455 1456 1457 1458 1459 1460 1461 1462 1462 1462 1463 1463 1463 1463 1463 1463 1463 1463 1463 1463 1463 1463 1462
1431 1431 1432 1432 1433 1434 1435 1436 1437 1438 1439 1441 1442 1443 1444 1446 1447 1448 1450 1451 1452 1453 1453 1454 1455 1456 1457 1458 1458 1458 1459 1459 1459 1459 1459 1458 1458 1458 1458 1458 1459 1458 1458
1429 1430 1430 1431 1431 1432 1433 1433 1434 1435 1436 1437 1439 1440 1441 1443 1444 1445 1446 1447 1448 1449 1450 1451 1452 1452 1453 1453 1454 1454 1454 1454 1454 1454 1454 1454 1454 1454 1454 1454 1454 1453 1453
1428 1428 1428 1429 1429 1430 1431 1432 1432 1433 1434 1435 1436 1437 1438 1439 1441 1442 1442 1443 1444 1445 1446 1447 1448 1448 1449 1449 1449 1450 1450 1450 1450 1450 1450 1450 1450 1450 1450 1449 1449 1448 1447
1427 1427 1427 1427 1428 1428 1429 1430 1430 1431 1432 1433 1434 1435 1435 1436 1437 1439 1439 1440 1440 1441 1442 1442 1443 1443 1444 1444 1445 1445 1446 1446 1446 1446 1446 1445 1445 1445 1445 1445 1444 1444 1442
1426 1426 1426 1426 1426 1426 1427 1428 1428 1430 1430 1431 1432 1433 1433 1434 1435 1435 1436 1437 1437 1438 1438 1438 1438 1439 1440 1440 1440 1441 1441 1441 1442 1442 1441 1441 1441 1440 1440 1440 1440 1439 1438
1425 1425 1425 1425 1425 1425 1425 1425 1425 1427 1428 1428 1429 1430 1430 1431 1432 1432 1433 1433 1434 1434 1434 1434 1435 1435 1436 1436 1436 1437 1437 1437 1437 1437 1437 1437 1436 1436 1436 1435 1435 1434 1433
1424 1424 1424 1424 1423 1423 1423 1424 1424 1424 1424 1425 1426 1427 1427 1428 1429 1429 1429 1430 1430 1430 1430 1431 1431 1431 1432 1432 1432 1432 1433 1433 1433 1433 1432 1432 1432 1431 1431 1430 1430 1430 1429
1423 1422 1422 1422 1422 1422 1422 1422 1422 1422 1422 1423 1423 1424 1425 1425 1426 1426 1426 1426 1426 1426 1427 1427 1427 1428 1428 1428 1428 1428 1428 1428 1428 1428 1428 1427 1427 1427 1426 1426 1426 1425 1424
1421 1421 1421 1420 1420 1420 1420 1420 1420 1420 1421 1421 1421 1421 1422 1422 1422 1423 1423 1423 1423 1423 1423 1423 1423 1424 1424 1424 1424 1424 1424 1424 1424 1423 1423 1423 1422 1422 1422 1421 1421 1420 1420
1419 1419 1419 1419 1419 1419 1419 1419 1419 1419 1419 1419 1419 1419 1420 1420 1419 1419 1419 1419 1419 1419 1419 1419 1419 1419 1419 1419 1419 1419 1419 1419 1419 1419 1419 1418 1418 1417 1417 1417 1416 1416 1415
1418 1417 1417 1417 1417 1417 1417 1417 1417 1417 1417 1417 1416 1417 1417 1417 1416 1416 1416 1416 1416 1416 1416 1415 1415 1415 1415 1415 1415 1415 1414 1414 1414 1414 1414 1413 1413 1413 1412 1412 1411 1411 1411
1416 1416 1415 1415 1415 1415 1415 1415 1414 1414 1414 1414 1414 1414 1414 1413 1413 1413 1413 1413 1412 1412 1412 1411 1411 1410 1410 1410 1410 1410 1410 1410 1410 1410 1409 1409 1408 1408 1407 1407 1407 1406 1406
1415 1414 1414 1413 1413 1413 1412 1412 1412 1412 1411 1411 1411 1411 1411 1410 1410 1410 1409 1409 1409 1408 1408 1407 1407 1406 1406 1406 1406 1405 1405 1405 1405 1405 1404 1404 1403 1403 1402 1402 1402 1401 1401
1413 1412 1412 1411 1411 1410 1410 1409 1409 1409 1408 1408 1408 1408 1407 1407 1406 1406 1406 1405 1405 1404 1404 1403 1403 1402 1402 1401 1401 1401 1400 1400 1400 1400 1399 1399 1398 1397 1397 1397 1396 1396 1396
1411 1410 1410 1409 1408 1408 1407 1406 1406 1406 1405 1405 1405 1404 1404 1403 1403 1402 1402 1401 1401 1400 1400 1399 1399 1398 1397 1396 1396 1396 1395 1395 1395 1395 1394 1393 1393 1392 1392 1392 1391 1391 1391